Regional Weather Roundup
Issued by NWS Tiyan, Guam

Home | Current Version | Previous Version | Text Only | Print | Product List | Glossary On
Versions: 1 2 3 4 5 6 7 8 9 10 11 12 13 14 15 16 17 18 19 20 21 22 23 24 25 26 27
000
ASGM40 PGUM 192010
RWRGUM
WEATHER ROUNDUP FOR THE MARIANAS
NATIONAL WEATHER SERVICE TIYAN GU
600 AM CHST FRI APR 20 2018

GUZ001>004-192100-
MARIANA ISLANDS-

CITY           SKY/WX    TMP DP  RH WIND       PRES   REMARKS
GUAM AIRPORT   MOCLDY    81  73  78 E10       29.88R
ANDERSEN AFB   PTCLDY    77  70  78 E14       29.89R
ROTA AIRPORT   PTCLDY    77  68  73 E12       29.89
TINIAN AP      PTCLDY    77  72  83 E7        29.87
SAIPAN AP      MOCLDY    77  72  83 E9        29.88R

$$





USA.gov is the U.S. government's official web portal to all federal, state and local government web resources and services.